WZZ2447 LZIB-LZKZ

Flight info

Callsign WZZ2447
Flight time N/A
Altitude 23000
Route NIT N190 TAKOS
Aircraft A320/M-SDE1E2E3FGIJ1J4RWXY/LB1

Departure

Time N/A
Airport M. R. Štefánik Airport (LZIB)

Arrival

Time 2026-05-06 18:35
Airport Košice International Airport (LZKZ)
Time Latitude Longitude Altitude Speed Heading
2026-05-06 18:01 48.34694 19.13296 22144 ft 452 kts 69°
2026-05-06 18:02 48.35952 19.17655 22578 ft 456 kts 66°
2026-05-06 18:02 48.37260 19.22012 22837 ft 459 kts 67°
2026-05-06 18:02 48.38479 19.26451 22884 ft 460 kts 70°
2026-05-06 18:02 48.39557 19.30976 22882 ft 458 kts 72°
2026-05-06 18:03 48.40509 19.35547 22566 ft 456 kts 75°
2026-05-06 18:03 48.41373 19.40113 22141 ft 452 kts 75°
2026-05-06 18:03 48.42204 19.44667 21723 ft 450 kts 76°
2026-05-06 18:03 48.43040 19.49193 21309 ft 447 kts 75°
2026-05-06 18:04 48.43934 19.53672 20896 ft 446 kts 71°
2026-05-06 18:04 48.45003 19.58036 20498 ft 444 kts 70°
2026-05-06 18:04 48.46103 19.62371 20104 ft 441 kts 70°
2026-05-06 18:04 48.47218 19.66667 19710 ft 439 kts 70°
2026-05-06 18:05 48.48336 19.70931 19322 ft 437 kts 70°
2026-05-06 18:05 48.49447 19.75186 18938 ft 435 kts 70°
2026-05-06 18:05 48.50544 19.79423 18570 ft 433 kts 70°
2026-05-06 18:05 48.51630 19.83649 18178 ft 431 kts 70°
2026-05-06 18:06 48.52699 19.87851 17762 ft 428 kts 70°
2026-05-06 18:06 48.53755 19.92026 17329 ft 425 kts 71°
2026-05-06 18:06 48.54803 19.96173 16906 ft 421 kts 71°
2026-05-06 18:06 48.55843 20.00292 16500 ft 418 kts 71°
2026-05-06 18:07 48.56876 20.04384 16087 ft 415 kts 71°
2026-05-06 18:07 48.57903 20.08444 15693 ft 412 kts 71°
2026-05-06 18:07 48.58923 20.12479 15295 ft 410 kts 70°
2026-05-06 18:07 48.59946 20.16539 14900 ft 407 kts 71°
2026-05-06 18:08 48.60946 20.20526 14512 ft 405 kts 71°
2026-05-06 18:08 48.61940 20.24492 14133 ft 403 kts 71°
2026-05-06 18:08 48.62928 20.28441 13757 ft 400 kts 71°
2026-05-06 18:08 48.63908 20.32359 13338 ft 398 kts 71°
2026-05-06 18:09 48.64885 20.36262 12923 ft 396 kts 71°
2026-05-06 18:09 48.65856 20.40147 12494 ft 393 kts 70°
2026-05-06 18:09 48.66818 20.44011 12087 ft 392 kts 71°
2026-05-06 18:09 48.67773 20.47863 11680 ft 390 kts 70°
2026-05-06 18:10 48.68719 20.51694 11270 ft 388 kts 71°
2026-05-06 18:10 48.69661 20.55510 10885 ft 387 kts 70°
2026-05-06 18:10 48.70600 20.59316 10547 ft 385 kts 70°
2026-05-06 18:10 48.71534 20.63097 10254 ft 383 kts 71°
2026-05-06 18:11 48.72466 20.66876 9976 ft 383 kts 70°
2026-05-06 18:11 48.73392 20.70653 9676 ft 382 kts 71°
2026-05-06 18:11 48.74311 20.74411 9359 ft 379 kts 70°
2026-05-06 18:11 48.75224 20.78157 9047 ft 378 kts 70°
2026-05-06 18:12 48.76128 20.81870 8738 ft 375 kts 70°
2026-05-06 18:12 48.77027 20.85567 8382 ft 372 kts 71°
2026-05-06 18:12 48.77921 20.89232 7973 ft 371 kts 71°
2026-05-06 18:12 48.78812 20.92895 7583 ft 369 kts 71°
2026-05-06 18:13 48.79694 20.96518 7149 ft 363 kts 71°
2026-05-06 18:13 48.80546 21.00018 6690 ft 343 kts 71°
2026-05-06 18:13 48.81356 21.03338 6260 ft 329 kts 71°
2026-05-06 18:13 48.82125 21.06499 6012 ft 309 kts 72°
2026-05-06 18:14 48.82844 21.09481 6000 ft 298 kts 72°
2026-05-06 18:14 48.83561 21.12474 6002 ft 298 kts 72°
2026-05-06 18:14 48.84268 21.15431 6001 ft 298 kts 72°
2026-05-06 18:14 48.84882 21.18443 5736 ft 297 kts 84°
2026-05-06 18:15 48.84928 21.21485 5355 ft 281 kts 103°
2026-05-06 18:15 48.84511 21.24311 4994 ft 270 kts 109°
2026-05-06 18:15 48.84014 21.27023 4483 ft 263 kts 121°
2026-05-06 18:15 48.82859 21.28992 3932 ft 245 kts 158°
2026-05-06 18:16 48.81275 21.29406 3509 ft 226 kts 193°
2026-05-06 18:16 48.79794 21.28841 3228 ft 215 kts 196°
2026-05-06 18:16 48.78371 21.28310 2886 ft 207 kts 192°
2026-05-06 18:16 48.77007 21.27844 2569 ft 197 kts 202°
2026-05-06 18:17 48.75760 21.27102 2429 ft 190 kts 198°
2026-05-06 18:17 48.74503 21.26639 2165 ft 176 kts 193°
2026-05-06 18:17 48.73369 21.26305 1929 ft 157 kts 191°
2026-05-06 18:17 48.72355 21.26010 1726 ft 143 kts 191°
2026-05-06 18:18 48.71403 21.25724 1541 ft 135 kts 191°
2026-05-06 18:18 48.70459 21.25489 1341 ft 138 kts 189°
2026-05-06 18:18 48.69519 21.25242 1130 ft 133 kts 195°
2026-05-06 18:18 48.68607 21.24922 980 ft 135 kts 194°
2026-05-06 18:19 48.67700 21.24607 809 ft 134 kts 192°
2026-05-06 18:19 48.66850 21.24311 764 ft 111 kts 193°
2026-05-06 18:19 48.66078 21.24038 1035 ft 122 kts 194°
2026-05-06 18:19 48.65136 21.23686 1485 ft 153 kts 194°
2026-05-06 18:20 48.64027 21.23324 2174 ft 171 kts 193°
2026-05-06 18:20 48.62831 21.22994 2780 ft 179 kts 192°
2026-05-06 18:20 48.61573 21.22707 3431 ft 186 kts 191°
2026-05-06 18:20 48.60248 21.22453 3889 ft 203 kts 191°
2026-05-06 18:21 48.58823 21.22155 3666 ft 203 kts 191°
2026-05-06 18:21 48.57436 21.21863 3530 ft 201 kts 191°
2026-05-06 18:21 48.56071 21.21504 3633 ft 199 kts 202°
2026-05-06 18:21 48.54995 21.20271 3804 ft 199 kts 237°
2026-05-06 18:22 48.54644 21.18258 3981 ft 206 kts 271°
2026-05-06 18:22 48.54905 21.16864 4101 ft 215 kts 294°
2026-05-06 18:22 48.55980 21.15234 4272 ft 229 kts 328°
2026-05-06 18:22 48.57557 21.14495 4465 ft 254 kts 344°
2026-05-06 18:23 48.59369 21.13993 4640 ft 271 kts 346°
2026-05-06 18:23 48.61243 21.13527 4812 ft 274 kts 346°
2026-05-06 18:23 48.63134 21.13065 4983 ft 275 kts 346°
2026-05-06 18:23 48.65024 21.12604 5158 ft 275 kts 346°
2026-05-06 18:24 48.66915 21.12143 5328 ft 275 kts 346°
2026-05-06 18:24 48.68810 21.11680 5476 ft 277 kts 346°
2026-05-06 18:24 48.70741 21.11208 5502 ft 277 kts 346°
2026-05-06 18:24 48.72643 21.10744 5506 ft 277 kts 347°
2026-05-06 18:25 48.74542 21.10279 5508 ft 276 kts 346°
2026-05-06 18:25 48.76441 21.09815 5505 ft 277 kts 346°
2026-05-06 18:25 48.78327 21.09361 5501 ft 269 kts 347°
2026-05-06 18:25 48.80096 21.08915 5505 ft 249 kts 346°
2026-05-06 18:26 48.81794 21.08502 5513 ft 247 kts 346°
2026-05-06 18:26 48.83496 21.08104 5508 ft 246 kts 346°
2026-05-06 18:26 48.85181 21.07710 5499 ft 245 kts 347°
2026-05-06 18:26 48.86875 21.07390 5504 ft 248 kts 357°
2026-05-06 18:27 48.88545 21.08085 5511 ft 255 kts 31°
2026-05-06 18:27 48.89787 21.09952 5503 ft 254 kts 60°
2026-05-06 18:27 48.90635 21.12305 5503 ft 255 kts 65°
2026-05-06 18:27 48.91416 21.14722 5510 ft 255 kts 66°
2026-05-06 18:28 48.92192 21.17138 5511 ft 255 kts 66°
2026-05-06 18:28 48.92890 21.19608 5500 ft 253 kts 80°
2026-05-06 18:28 48.92981 21.22220 5503 ft 244 kts 107°
2026-05-06 18:28 48.92382 21.24546 5507 ft 232 kts 131°
2026-05-06 18:29 48.91273 21.26229 5507 ft 222 kts 154°
2026-05-06 18:29 48.89885 21.27155 5323 ft 220 kts 167°
2026-05-06 18:29 48.88429 21.27873 4895 ft 218 kts 168°
2026-05-06 18:29 48.86998 21.28566 4550 ft 212 kts 168°
2026-05-06 18:30 48.85610 21.29237 4300 ft 207 kts 168°
2026-05-06 18:30 48.84234 21.29836 4063 ft 203 kts 176°
2026-05-06 18:30 48.82857 21.29895 3822 ft 194 kts 191°
2026-05-06 18:30 48.81574 21.29479 3561 ft 185 kts 196°
2026-05-06 18:31 48.80336 21.29038 3339 ft 175 kts 197°
2026-05-06 18:31 48.79190 21.28636 3089 ft 164 kts 197°
2026-05-06 18:31 48.78103 21.28255 2857 ft 157 kts 197°
2026-05-06 18:31 48.77074 21.27892 2654 ft 147 kts 195°
2026-05-06 18:32 48.76105 21.27552 2469 ft 142 kts 195°
2026-05-06 18:32 48.75156 21.27218 2289 ft 137 kts 195°
2026-05-06 18:32 48.74228 21.26892 2096 ft 137 kts 194°
2026-05-06 18:32 48.73298 21.26564 1921 ft 137 kts 194°
2026-05-06 18:33 48.72377 21.26240 1738 ft 136 kts 193°
2026-05-06 18:33 48.71462 21.25919 1552 ft 134 kts 193°
2026-05-06 18:33 48.70551 21.25601 1369 ft 135 kts 193°
2026-05-06 18:33 48.69637 21.25278 1185 ft 137 kts 195°
2026-05-06 18:34 48.68710 21.24961 993 ft 137 kts 194°
2026-05-06 18:34 48.67784 21.24634 808 ft 136 kts 192°
2026-05-06 18:34 48.66924 21.24334 759 ft 110 kts 193°
2026-05-06 18:34 48.66346 21.24133 757 ft 60 kts 193°
2026-05-06 18:35 48.66089 21.24043 752 ft 26 kts 194°
2026-05-06 18:35 48.65918 21.24040 757 ft 23 kts 125°
2026-05-06 18:35 48.65885 21.24199 757 ft 0 kts 103°
2026-05-06 18:36 48.65884 21.24205 757 ft 3 kts 103°
2026-05-06 18:36 48.65903 21.24310 755 ft 19 kts 38°
2026-05-06 18:37 48.66034 21.24365 755 ft 21 kts 14°
2026-05-06 18:37 48.66175 21.24418 753 ft 22 kts 13°
2026-05-06 18:37 48.66332 21.24467 755 ft 24 kts
2026-05-06 18:37 48.66502 21.24532 757 ft 26 kts 15°
2026-05-06 18:38 48.66648 21.24587 757 ft 13 kts 13°
2026-05-06 18:38 48.66729 21.24590 755 ft 11 kts 316°
2026-05-06 18:38 48.66779 21.24623 755 ft 9 kts 44°
2026-05-06 18:38 48.66842 21.24656 754 ft 12 kts 13°
2026-05-06 18:39 48.66972 21.24698 752 ft 24 kts 12°
2026-05-06 18:39 48.67112 21.24747 756 ft 16 kts 12°
2026-05-06 18:39 48.67183 21.24712 756 ft 10 kts 304°
2026-05-06 18:40 48.67204 21.24574 758 ft 0 kts 283°
2026-05-06 18:41 48.67210 21.24538 757 ft 10 kts 283°
2026-05-06 18:41 48.67239 21.24350 755 ft 25 kts 282°
2026-05-06 18:41 48.67272 21.24134 755 ft 17 kts 283°
2026-05-06 18:41 48.67291 21.24013 757 ft 12 kts 284°
2026-05-06 18:42 48.67297 21.23874 756 ft 15 kts 253°
2026-05-06 18:42 48.67290 21.23842 755 ft 1 kts 252°